Wind_Speed
36 35 35 35 35 35 36 37 38 39 39 39 39 39 39 39 39 38 37 36 34 33 32 32 32 32 31 32 33 36 40 43 45 46 46 47 48 47 46 44 43 42 41 40 38 37 37 36 36 36 35 34 34 34 33 33 31 31 30 28 26 25 24 22 20 16 15 13 10 9 9 9 7 6 7 8 10 11 9 10 22 28 29 31 31 31 31 34
39 38 37 36 36 37 37 37 38 39 40 41 40 40 40 41 41 40 40 39 37 36 35 35 34 34 34 34 34 35 38 41 43 44 46 48 49 48 48 47 45 44 43 41 40 39 38 38 38 37 36 36 36 35 35 34 33 32 31 30 28 27 26 24 22 19 18 16 12 9 10 9 7 6 6 9 11 11 6 11 23 27 29 30 31 31 31 33
42 41 40 39 38 38 38 39 39 40 41 42 42 42 42 42 42 42 42 42 40 39 38 38 37 37 37 36 36 37 38 39 40 42 45 48 49 50 49 49 48 47 46 44 42 41 41 40 39 38 37 37 37 37 36 35 34 33 32 32 30 28 27 25 23 22 21 19 16 12 9 9 9 9 8 10 12 10 7 16 24 26 27 29 29 30 30 32
47 45 44 43 42 41 40 40 40 41 41 42 43 44 44 44 44 44 44 44 43 42 42 41 40 40 39 39 39 39 39 39 39 41 44 47 49 50 50 50 50 49 48 47 45 44 43 41 40 39 38 38 38 38 37 36 35 34 33 33 31 30 29 27 26 25 23 21 19 16 13 11 11 12 11 11 12 9 10 19 23 24 26 28 28 28 29 31
51 50 49 47 46 45 44 43 42 42 43 43 44 45 46 46 45 45 45 46 46 45 45 44 43 43 42 42 41 42 41 40 40 41 43 44 47 49 50 51 51 51 50 49 47 46 45 43 42 41 40 39 39 38 37 37 36 35 34 34 33 32 30 29 28 27 26 23 21 19 16 14 13 13 13 12 13 13 15 20 20 22 25 26 26 26 27 30
56 55 54 52 51 49 48 47 46 45 44 45 45 46 47 47 47 47 47 47 48 47 47 47 46 46 45 45 44 44 44 43 42 42 42 43 45 47 49 50 52 53 52 51 50 49 47 46 45 43 42 41 40 39 38 38 37 37 36 35 34 33 31 30 30 29 27 25 23 21 19 17 16 15 15 14 13 13 14 16 17 21 24 24 24 24 27 29
58 58 58 57 56 54 53 52 50 49 48 47 47 47 47 48 49 49 49 49 49 49 49 50 49 49 49 48 47 47 48 47 45 43 44 44 44 46 48 49 51 53 53 53 52 51 50 49 48 46 45 44 43 41 39 39 39 39 38 37 36 35 33 32 31 31 29 28 26 25 22 20 20 19 17 15 12 12 13 15 16 21 23 24 22 24 26 27
60 61 61 60 60 59 58 56 55 54 52 51 50 49 49 49 50 51 51 51 51 51 51 51 52 52 52 51 50 50 51 50 47 45 46 46 45 46 47 48 49 51 52 54 54 54 53 52 50 49 47 46 45 42 41 42 42 42 41 40 38 37 36 34 34 33 32 31 30 29 27 24 23 21 18 15 14 13 15 16 17 21 23 23 22 24 25 26
59 61 62 62 62 62 61 60 59 58 57 56 54 52 51 51 51 52 52 53 53 53 53 53 54 54 54 54 54 54 54 53 50 47 48 49 47 47 48 48 48 49 51 53 54 55 55 54 53 51 50 48 47 45 44 45 45 44 44 43 41 41 40 38 38 37 35 34 34 32 30 28 25 22 20 20 18 16 16 18 19 21 23 23 22 23 24 25
58 60 61 63 64 64 64 64 63 62 61 60 59 57 55 54 53 53 54 54 55 55 55 55 55 56 56 57 57 57 56 56 54 50 50 51 50 50 50 49 48 48 49 52 54 55 55 55 55 54 52 51 50 49 48 48 47 46 46 46 45 44 44 42 41 40 38 37 36 35 34 32 29 25 23 23 22 20 20 21 21 22 23 23 22 22 23 23
59 60 61 62 63 65 66 66 66 65 65 64 63 62 60 58 57 55 55 55 56 56 57 57 57 57 58 59 59 59 59 58 57 54 53 54 54 52 52 51 50 49 49 51 53 54 55 55 55 55 55 54 53 52 51 50 50 50 49 49 48 47 45 43 42 42 40 39 38 38 36 34 31 27 24 24 25 24 24 24 23 24 24 23 21 20 21 21
61 61 62 63 64 65 66 67 68 68 68 67 66 65 65 63 61 59 58 57 57 58 58 59 59 59 60 60 60 61 61 61 60 58 57 57 57 55 54 54 52 51 50 50 52 53 54 54 55 55 55 55 54 54 53 53 53 53 52 52 51 49 48 46 43 43 42 41 40 39 38 35 33 30 28 27 27 27 26 26 25 26 25 23 21 19 20 19
63 63 64 64 65 66 66 67 68 69 70 70 69 69 68 67 66 64 62 60 59 59 60 60 61 61 62 61 61 62 62 63 63 61 60 60 59 58 57 56 55 54 52 51 51 52 54 54 54 55 55 55 55 55 55 55 56 56 55 54 53 52 51 48 45 44 43 42 41 40 39 37 35 33 31 29 29 28 27 28 28 27 25 23 21 18 19 17
65 65 65 66 67 67 68 68 69 70 71 72 72 72 71 70 69 68 66 65 63 62 61 62 62 63 63 63 63 63 64 65 65 64 63 62 62 61 59 58 58 57 55 53 52 52 53 54 54 54 53 54 55 55 55 56 57 57 57 55 55 54 52 49 46 44 44 44 42 41 40 39 37 35 32 30 30 30 29 30 29 27 25 23 20 17 17 16
64 66 67 67 68 68 69 70 71 71 72 73 74 74 74 73 73 72 71 69 67 65 64 64 64 64 64 64 64 65 65 66 66 66 65 65 65 64 62 61 60 60 58 56 55 54 53 54 54 54 53 53 54 54 54 56 57 58 58 57 56 54 52 49 47 46 45 45 44 42 41 40 38 36 34 32 32 33 32 31 29 27 25 23 19 16 16 15
63 66 67 68 69 70 71 71 72 73 74 74 75 75 76 76 76 75 74 73 71 69 68 67 66 66 66 66 66 66 67 67 66 67 67 67 67 66 66 64 63 62 61 60 58 56 54 54 55 55 54 53 52 52 53 55 57 58 59 59 57 55 52 50 49 48 47 46 46 44 42 41 40 38 36 35 34 34 33 31 29 27 25 23 19 15 15 13
61 65 67 69 70 71 72 73 74 75 75 76 76 76 77 78 79 78 78 76 75 74 72 71 69 68 68 68 67 67 68 68 68 68 68 68 68 68 68 67 66 65 64 62 60 58 56 55 55 55 54 52 51 50 51 55 57 58 59 59 57 56 53 51 51 49 47 47 47 45 44 43 42 40 39 37 36 35 33 31 28 26 24 22 18 15 15 13
57 61 66 69 72 73 74 75 76 76 77 78 78 78 78 79 80 81 81 80 78 77 76 75 73 71 70 69 69 69 69 69 69 69 69 69 70 70 70 69 68 67 66 64 63 61 59 58 57 55 54 52 52 51 52 55 57 58 59 58 57 55 54 53 52 51 49 47 47 46 45 44 44 42 40 39 38 35 33 31 28 26 24 22 18 16 16 13
50 55 60 65 69 73 75 77 78 78 79 79 80 80 80 79 81 82 83 82 81 80 80 79 77 75 74 73 72 72 71 71 71 70 70 70 71 71 71 71 70 69 68 67 65 64 63 61 58 56 55 55 55 55 56 56 56 56 57 56 55 55 55 54 53 53 51 49 49 47 45 45 45 43 41 39 38 35 33 30 28 26 23 22 19 16 16 13
44 47 52 56 61 67 71 75 77 78 79 80 81 81 81 81 82 83 83 84 84 83 83 82 81 79 77 76 75 74 73 72 72 72 71 71 72 72 72 72 72 71 70 69 68 67 65 63 60 58 58 58 58 58 57 55 54 54 55 54 54 54 55 55 54 54 53 51 50 48 45 46 46 43 40 39 37 35 32 29 27 25 24 23 21 18 17 14
39 41 45 48 52 58 62 67 72 76 78 80 81 82 82 82 82 83 83 84 85 86 86 85 84 83 81 80 79 77 75 74 74 75 73 73 73 73 73 73 73 73 72 72 71 70 67 64 63 63 62 61 60 59 57 55 54 53 53 53 53 53 55 56 54 53 54 53 51 49 46 46 47 43 40 39 37 35 31 29 28 26 25 24 22 20 18 16
36 38 40 42 45 50 53 57 63 68 73 77 79 81 82 82 83 83 83 84 85 86 87 88 87 86 85 84 82 80 78 76 76 77 76 75 74 74 74 74 74 74 74 74 73 71 68 66 67 67 66 64 62 60 58 57 55 53 52 52 51 53 55 56 54 53 53 53 51 50 47 47 46 43 41 40 37 34 31 30 29 27 26 24 22 21 20 18
35 36 37 38 40 44 47 50 54 59 65 71 75 79 81 82 82 83 84 84 85 86 87 89 89 89 88 87 85 84 82 79 79 79 78 77 76 76 75 75 75 75 75 75 74 73 71 70 71 71 70 67 65 63 60 59 57 55 53 51 51 53 55 56 54 52 52 52 51 50 48 47 45 42 41 40 38 35 32 31 30 28 27 26 24 23 21 19
34 35 36 35 36 40 42 45 49 52 57 63 69 73 77 80 82 83 84 85 85 86 87 89 90 91 91 90 88 87 85 83 83 82 80 78 79 78 77 77 76 76 76 76 75 74 73 74 74 74 72 69 67 65 62 60 59 57 54 52 53 54 56 56 54 51 50 52 52 50 47 45 43 41 41 40 38 36 34 32 31 29 28 27 25 24 23 21
35 34 35 35 34 36 38 40 44 48 51 56 61 66 71 76 80 82 83 84 85 86 87 88 90 92 92 92 91 90 88 87 87 85 82 81 81 80 79 78 78 77 77 77 76 75 75 75 76 76 74 71 69 67 65 63 61 59 56 55 55 55 56 57 55 51 50 51 52 49 45 43 42 41 40 39 38 37 35 34 32 30 29 28 26 26 25 23
36 33 34 34 33 34 36 36 40 44 48 52 56 60 63 69 75 80 82 84 86 86 87 88 90 91 92 93 93 92 91 90 90 88 85 84 83 83 82 80 80 80 79 78 77 75 75 76 77 77 76 74 72 70 68 66 63 61 59 58 57 57 57 58 57 53 49 50 50 47 43 42 41 41 40 39 38 37 36 34 32 31 30 29 28 28 27 25
39 34 33 34 33 32 34 34 36 40 43 47 52 56 59 63 69 75 79 83 85 87 88 88 89 90 91 92 93 93 94 93 92 91 89 88 86 85 83 82 82 82 80 79 77 76 76 77 78 79 78 76 74 73 71 69 66 64 63 62 61 59 59 59 58 54 51 50 49 46 44 42 40 39 39 38 37 37 36 34 34 33 32 31 31 30 29 27
41 36 33 33 33 32 33 33 34 37 39 41 47 53 57 60 64 69 74 79 84 86 87 87 88 89 89 90 92 93 94 94 94 95 93 92 90 88 86 85 85 84 82 80 79 78 78 78 79 79 78 76 75 75 74 71 68 67 68 66 64 63 61 61 59 56 53 50 48 46 44 41 39 40 39 38 37 37 36 36 35 35 35 34 33 33 31 30
44 38 33 32 33 32 32 33 34 35 36 38 41 46 53 58 61 64 67 73 79 83 85 86 86 87 88 89 91 93 94 94 95 97 97 95 94 92 90 88 86 85 83 81 81 80 80 79 79 78 77 76 76 77 76 74 71 71 72 70 67 66 64 63 60 58 55 50 46 44 42 40 39 40 39 38 37 38 38 37 37 37 36 36 36 35 34 33
46 39 33 31 31 32 32 34 34 34 35 36 37 40 46 52 57 61 64 68 72 77 81 83 84 85 87 88 90 91 92 94 95 98 98 98 97 96 94 92 89 87 84 83 82 83 82 81 80 79 79 79 79 79 78 76 74 74 74 73 70 69 67 65 62 60 56 50 47 45 41 39 38 38 38 37 39 40 40 39 38 39 38 38 38 37 37 36
49 41 34 31 30 31 32 34 35 35 35 36 36 37 40 44 49 54 59 63 65 69 74 78 82 85 86 87 88 89 91 93 95 97 98 98 99 99 97 94 91 89 87 85 84 84 83 82 81 81 80 81 82 82 82 80 78 77 77 75 74 71 70 68 65 62 57 52 50 47 42 39 38 38 38 39 41 42 42 42 41 41 41 41 40 40 39 38
51 42 35 30 29 29 30 33 35 35 36 36 36 36 37 39 41 45 51 55 59 63 67 73 80 83 84 85 87 88 89 92 94 96 98 99 99 99 98 96 94 93 91 88 87 86 85 84 83 83 83 84 84 84 84 83 82 81 79 78 76 74 72 70 67 64 60 55 53 50 45 43 41 40 40 41 42 42 44 46 46 45 43 42 42 42 41 40
53 44 36 30 28 28 28 31 34 36 37 37 37 36 35 35 37 40 44 47 52 57 62 68 74 77 80 83 86 87 89 91 93 95 98 99 99 98 98 97 96 96 95 93 90 89 87 86 86 87 88 87 85 85 85 85 85 83 82 81 79 77 75 72 69 67 62 58 56 53 49 46 43 42 42 43 44 46 47 48 49 48 45 44 44 44 43 42
55 45 37 31 28 27 27 28 31 34 37 38 38 36 34 34 35 37 39 42 46 50 56 62 68 72 75 79 83 86 88 89 91 94 96 98 97 96 96 96 96 97 98 96 94 92 91 90 89 89 90 88 86 85 85 85 84 83 83 84 83 80 77 74 72 70 66 62 59 57 53 48 46 45 45 46 48 51 50 50 50 50 48 47 46 45 45 45
56 46 38 32 28 27 26 27 29 32 35 37 37 37 36 35 35 36 38 41 43 47 53 59 63 65 68 72 77 81 84 86 89 92 95 95 94 94 95 96 96 97 99 99 98 96 95 94 93 92 91 88 86 87 87 86 85 84 85 85 85 83 80 77 74 72 69 65 63 60 55 51 49 48 47 49 51 52 52 51 51 51 50 49 47 46 47 47
57 46 38 32 28 26 26 26 27 29 32 34 36 37 37 37 37 38 40 41 43 47 52 56 57 57 59 63 68 74 78 82 86 91 93 93 92 92 93 95 97 99 99 100 100 100 99 99 97 95 93 90 89 90 91 89 88 87 87 87 86 85 83 80 78 75 73 69 67 64 59 54 53 51 50 51 52 52 52 52 52 53 51 50 48 46 48 48
59 47 38 32 27 25 25 25 26 27 29 31 33 36 37 38 40 40 40 41 43 47 50 51 51 52 53 56 61 66 72 76 82 87 89 90 90 91 92 94 97 100 101 101 101 102 102 103 102 99 96 93 92 93 94 92 91 90 89 88 87 86 85 84 82 80 78 75 72 70 65 59 57 55 53 53 54 54 53 53 53 54 53 52 51 48 49 49
61 48 38 32 27 23 24 24 24 25 26 28 30 33 36 39 41 41 40 41 43 45 47 48 48 49 51 54 56 60 64 69 75 80 83 87 89 89 91 93 96 98 100 101 101 101 103 104 104 102 100 99 97 96 95 94 93 92 91 89 88 87 88 88 86 84 81 79 76 74 69 63 61 60 59 59 59 58 57 55 54 55 54 56 56 53 51 50
61 50 40 32 27 23 22 22 23 24 25 26 27 30 34 38 40 41 41 42 45 46 47 47 48 49 51 53 54 56 59 64 69 73 77 82 86 87 87 91 94 96 98 100 101 102 102 104 104 103 104 103 101 99 97 96 95 94 94 92 91 91 91 90 88 85 83 81 78 77 73 68 67 66 65 64 64 62 61 59 56 55 55 57 58 57 56 53
61 52 43 34 28 23 21 21 21 22 23 25 25 27 31 33 36 39 41 43 46 46 46 47 47 47 49 50 51 53 56 60 65 69 72 75 79 82 83 86 91 95 97 98 100 101 103 104 104 104 105 106 105 103 101 99 98 97 97 95 94 94 92 91 88 85 83 82 80 80 77 74 73 72 68 66 65 62 59 58 57 56 56 56 57 59 60 56
61 52 44 36 29 23 19 19 20 21 22 23 24 26 27 28 31 35 38 42 44 45 45 46 46 47 48 49 50 52 55 58 62 64 66 68 71 74 78 81 85 91 95 97 98 100 102 104 105 105 105 106 107 106 105 103 101 99 99 97 96 95 93 91 90 87 85 83 82 81 81 80 78 73 69 67 65 62 59 57 56 57 56 56 57 59 61 57
61 52 45 38 31 25 19 17 18 20 21 22 23 24 24 26 29 31 34 38 41 43 44 46 47 48 49 49 50 52 55 57 58 60 62 64 65 67 71 75 78 85 91 96 98 99 100 102 105 106 106 106 108 110 108 107 105 102 102 100 97 96 94 93 91 88 85 84 84 84 85 85 80 74 71 69 67 65 62 58 58 59 59 58 58 60 60 57
62 52 44 38 32 27 21 17 16 17 19 21 22 23 24 25 27 28 30 33 36 38 41 44 45 46 46 48 50 52 53 53 55 57 58 60 60 61 65 70 74 80 87 92 96 97 97 99 102 105 106 107 109 111 110 110 108 106 105 103 100 98 96 94 92 90 88 86 86 87 88 87 82 76 74 71 68 67 63 59 58 61 62 60 60 61 59 58
63 53 45 38 32 27 22 18 16 16 17 19 20 22 23 25 25 26 27 29 31 34 36 38 39 40 42 46 48 49 50 51 53 55 55 56 58 59 62 67 72 76 81 86 90 93 94 96 100 104 106 107 110 111 111 112 112 110 109 107 104 101 98 96 94 94 91 89 88 89 89 89 85 81 78 75 72 70 66 62 59 62 63 62 61 61 59 58
63 54 46 39 32 27 23 19 16 15 16 17 19 21 22 24 24 25 26 27 28 30 31 32 34 37 39 41 44 46 47 48 49 52 52 53 55 58 61 65 69 71 74 79 84 88 91 94 98 102 105 107 110 111 111 112 113 112 111 110 107 104 101 98 97 96 94 91 90 90 91 91 88 85 83 79 75 72 69 66 62 62 64 64 63 63 60 59
63 54 47 39 33 27 23 19 16 15 15 16 17 19 21 23 24 25 25 26 27 28 29 30 32 34 36 38 40 42 43 44 46 48 49 49 51 55 59 62 64 67 70 74 78 82 86 89 94 99 104 107 110 111 111 111 112 112 112 113 111 108 105 102 99 97 95 93 92 92 93 93 91 90 87 82 78 75 72 69 64 62 64 65 64 63 62 60
63 54 46 40 33 27 23 19 16 14 14 15 17 18 20 22 23 24 25 26 27 27 28 30 31 32 34 35 37 38 40 41 43 45 46 46 48 52 56 59 60 64 68 71 74 77 81 85 89 94 100 105 108 110 111 111 111 112 113 115 114 112 109 106 102 99 97 97 96 95 95 96 95 92 88 84 82 78 73 71 67 63 63 65 65 64 62 62
64 55 47 40 34 28 23 19 16 14 13 13 15 17 19 21 22 24 25 26 27 28 28 29 30 31 32 33 34 36 37 38 39 41 43 44 46 50 53 55 57 61 65 69 71 74 77 81 85 90 95 101 105 108 111 112 112 112 113 115 116 115 113 110 106 102 100 100 99 98 97 98 96 93 90 87 84 79 75 73 71 66 63 64 67 66 65 65
64 56 49 41 35 29 24 19 16 14 12 12 14 16 17 19 21 23 24 25 27 28 28 29 30 31 32 32 33 35 36 37 38 39 40 42 44 47 49 52 54 57 61 65 69 72 75 78 82 86 91 97 103 106 109 112 113 114 115 116 117 117 116 114 110 106 104 103 102 101 100 99 97 94 91 89 87 82 78 76 74 70 66 65 68 68 68 67
65 56 50 43 36 30 25 20 16 14 12 11 13 14 16 18 20 21 23 24 25 27 28 29 30 31 32 33 33 35 36 37 37 39 40 42 43 45 47 50 52 55 58 62 66 70 73 75 79 83 87 93 99 104 108 110 113 115 116 116 117 116 117 117 115 112 110 108 106 104 103 101 98 95 94 93 90 86 82 80 77 75 72 69 69 69 69 68
66 57 51 45 39 32 26 22 17 14 12 11 12 13 15 17 19 20 22 23 25 26 27 28 30 31 32 33 34 36 37 37 38 39 41 42 43 44 46 48 50 53 57 60 63 67 71 73 76 80 84 90 96 101 105 109 111 113 115 116 117 117 117 119 119 117 114 111 109 107 104 102 99 97 96 95 93 89 86 83 82 80 76 72 71 72 73 71
66 58 52 46 41 35 29 23 18 14 12 11 11 12 14 16 18 19 22 23 25 26 27 28 30 31 33 34 35 36 37 38 39 40 41 42 43 44 45 47 49 52 54 57 60 64 68 71 74 77 81 87 94 98 103 107 109 110 113 117 120 120 119 119 120 119 116 114 112 109 106 102 100 98 98 97 94 91 88 86 86 84 78 74 73 76 76 74
Wind_Direction
273 271 269 266 263 260 257 253 249 247 245 244 242 240 239 238 237 237 236 235 233 230 227 226 226 226 224 220 216 214 215 217 218 219 220 221 222 222 222 221 220 220 220 219 219 219 219 219 220 219 217 217 219 220 221 222 222 223 226 228 230 233 237 237 238 245 247 252 258 261 261 265 294 310 314 321 328 2 20 339 336 340 341 343 345 347 348 348
270 270 268 267 265 262 259 255 251 248 246 244 242 241 239 238 237 237 236 235 233 231 228 227 226 226 226 225 221 217 214 215 217 218 220 221 222 222 223 223 221 222 222 221 221 221 221 220 221 221 220 221 221 222 222 223 223 223 226 227 230 233 238 240 240 240 243 249 252 258 263 262 269 265 286 308 325 360 3 323 332 336 337 339 342 344 345 346
269 267 266 265 264 263 260 257 254 251 247 245 243 241 239 238 237 236 236 235 233 231 229 228 227 227 227 226 225 221 216 214 215 217 220 221 222 223 224 224 223 223 223 222 222 222 223 222 223 223 224 224 225 225 224 225 224 224 225 227 228 232 237 241 241 237 240 246 247 251 261 262 255 246 255 280 314 352 333 315 326 329 332 335 339 342 343 345
268 267 265 263 262 261 260 258 256 253 250 247 244 242 240 239 237 236 235 235 234 231 230 228 228 227 226 227 227 226 221 216 214 216 219 221 222 223 224 224 225 224 224 223 223 223 224 224 224 224 226 227 228 228 227 228 228 227 227 227 228 230 235 239 240 238 239 242 244 245 247 253 250 253 269 286 303 311 292 299 312 321 329 333 337 340 342 344
269 267 265 263 261 260 259 257 256 254 252 249 246 243 242 240 238 237 235 235 234 232 230 228 228 227 227 226 227 228 224 219 216 216 217 219 221 222 223 225 225 225 225 224 224 224 225 225 225 225 226 227 230 230 230 231 231 231 231 230 229 230 234 238 240 239 239 239 242 243 239 240 243 257 274 286 294 292 287 289 302 321 329 332 337 340 342 343
269 267 265 263 261 259 257 256 255 254 252 250 248 245 243 241 239 237 236 235 234 233 231 229 228 227 227 226 226 228 227 223 220 218 217 218 220 221 223 224 225 226 226 225 225 225 225 226 226 226 226 227 229 230 232 233 233 234 234 233 232 232 235 239 241 240 239 238 240 241 237 234 236 248 257 265 282 292 290 287 305 326 331 335 339 341 342 343
267 266 265 263 261 259 258 256 254 252 251 250 248 246 244 242 240 239 237 235 234 233 232 231 229 227 227 226 226 228 228 224 221 222 220 217 218 220 222 223 225 226 226 226 226 226 226 227 226 226 226 227 228 229 231 233 234 235 234 234 234 234 237 239 242 242 241 239 239 238 238 235 234 240 247 254 266 278 284 287 307 326 330 335 339 340 340 341
266 265 264 262 261 259 257 256 254 252 251 249 248 246 245 243 241 240 238 236 235 234 233 232 230 229 227 226 227 228 228 226 222 223 224 219 218 220 220 221 224 225 226 226 226 227 227 227 227 227 227 228 228 229 230 232 233 234 234 233 233 234 236 238 241 243 242 242 240 236 237 239 236 238 246 253 256 267 280 285 304 322 327 329 334 338 337 338
264 263 262 261 260 258 256 255 253 252 250 249 247 246 244 243 241 240 239 237 236 235 234 233 231 230 228 227 227 228 228 227 223 224 226 223 220 220 220 220 222 224 225 226 226 226 227 228 229 229 229 229 230 229 230 232 233 234 235 234 233 233 233 234 236 238 240 242 242 236 236 239 239 240 246 251 251 259 275 286 301 315 322 323 327 334 335 335
262 261 260 259 258 257 256 254 252 251 250 248 247 246 244 243 241 240 239 238 237 235 234 233 232 231 230 228 227 228 227 227 224 223 227 226 223 222 221 220 220 222 224 226 226 226 227 228 229 229 230 230 231 230 231 232 234 234 235 236 235 234 232 231 234 236 236 240 242 240 237 238 240 243 247 252 255 257 270 283 292 303 313 316 319 330 332 333
263 260 258 256 256 255 254 253 252 250 249 248 246 245 244 243 241 240 239 238 237 236 235 234 233 232 231 229 228 228 227 227 225 222 225 227 225 224 223 222 220 220 222 225 226 226 226 227 228 229 230 231 231 232 233 233 235 235 236 236 236 236 235 234 235 237 237 238 242 243 241 240 241 243 246 252 257 258 266 275 282 294 305 310 313 324 327 329
267 262 259 256 254 252 252 251 250 249 248 247 245 244 244 242 241 240 238 237 236 236 236 235 234 233 232 231 230 228 227 227 226 223 224 227 226 225 224 224 221 220 221 223 225 226 226 226 227 228 229 230 231 232 233 234 235 236 236 236 237 237 237 235 235 238 240 239 242 246 246 246 245 247 249 253 256 258 263 269 277 288 298 304 308 317 321 324
270 266 262 258 255 252 250 249 248 247 247 246 244 243 242 242 241 240 238 237 236 235 235 235 234 233 233 232 231 229 228 227 226 224 223 226 227 226 225 225 224 222 221 222 223 225 226 226 226 228 228 229 230 231 233 234 235 236 237 237 238 237 236 236 235 237 241 241 242 246 249 250 250 250 252 254 256 257 260 266 274 285 294 300 303 312 316 317
270 268 264 261 257 253 250 248 246 245 245 244 243 242 241 240 240 239 238 237 236 235 234 234 234 234 233 232 231 230 229 228 227 226 224 224 226 227 226 226 226 224 222 222 222 224 226 226 226 227 228 228 229 231 232 234 235 237 238 238 238 238 238 237 237 238 241 243 244 246 249 251 252 253 254 254 257 260 263 267 274 282 288 293 296 304 308 310
269 266 264 261 258 255 252 248 246 244 243 242 242 241 240 239 238 238 238 237 235 234 234 234 234 234 234 233 232 231 230 229 228 227 225 224 225 226 227 226 226 226 224 223 222 223 225 226 226 226 226 227 228 230 231 233 234 236 237 237 238 239 239 239 239 239 241 244 245 245 248 251 253 255 256 256 257 262 266 268 274 280 283 285 287 294 301 303
265 262 260 258 256 255 252 249 246 244 242 240 240 239 239 238 237 237 236 236 235 234 233 233 233 233 233 233 232 231 231 230 229 228 227 225 225 226 226 227 227 227 225 224 223 223 224 225 226 226 226 227 228 229 230 232 233 234 236 237 237 238 238 239 239 239 240 242 244 245 246 249 251 253 255 255 257 260 264 268 273 277 279 279 280 287 293 294
264 259 256 254 252 251 250 248 246 244 241 240 239 237 237 237 237 236 235 235 234 234 233 232 232 232 232 232 232 232 232 231 229 229 228 227 226 226 226 226 227 228 227 226 224 224 224 225 226 226 226 226 227 228 229 231 232 233 236 237 237 238 238 238 239 239 239 240 243 244 246 247 248 250 252 253 255 257 261 266 269 271 274 274 274 279 282 281
265 260 255 252 249 247 246 245 245 243 241 239 238 237 236 235 236 235 234 234 233 233 233 232 231 231 231 231 231 232 231 231 230 229 228 228 227 226 226 226 226 227 228 227 226 225 224 225 226 227 227 226 226 226 228 231 232 234 236 237 238 238 239 239 239 240 239 239 241 242 244 246 247 248 249 252 253 256 259 263 264 266 268 267 265 270 273 271
270 263 258 254 250 247 245 244 243 242 241 239 238 237 235 234 234 234 234 233 232 232 232 232 231 231 230 230 230 230 231 231 231 230 229 228 228 227 226 226 226 226 227 228 228 226 225 225 225 227 227 227 226 226 228 230 232 234 235 236 237 238 238 237 238 239 239 238 239 239 240 243 245 245 247 250 252 254 255 258 260 260 260 258 257 260 264 260
276 269 263 258 254 250 247 245 243 242 240 239 237 237 236 234 234 234 233 233 232 231 231 231 231 231 230 230 230 229 229 230 231 231 229 229 228 228 227 226 226 226 226 227 227 228 227 225 225 226 227 228 227 227 228 229 231 233 235 235 236 237 237 237 237 238 238 237 238 238 238 241 243 244 245 247 249 251 251 253 254 253 252 251 251 251 252 249
283 275 268 263 259 255 251 248 246 244 241 240 238 237 236 235 234 234 233 232 232 231 231 231 231 230 230 230 230 229 229 229 230 231 230 229 229 228 228 227 227 226 226 226 227 227 227 226 226 227 227 228 228 228 228 228 230 232 234 235 236 237 237 237 236 237 238 237 237 238 237 240 242 242 243 244 246 247 248 248 248 247 246 246 246 244 242 240
291 283 275 268 264 259 255 251 248 246 244 241 239 238 237 236 235 234 233 232 232 231 231 231 230 230 229 230 230 229 228 228 229 230 230 230 229 229 228 228 227 226 226 226 226 227 226 226 226 227 228 227 228 228 228 228 229 230 232 234 236 237 237 237 236 236 237 238 238 237 236 238 240 241 241 242 243 243 243 243 244 243 242 242 241 239 235 234
298 289 281 273 267 263 258 254 250 247 245 243 241 239 237 236 235 235 234 233 232 231 231 231 230 230 229 229 229 229 228 228 228 229 229 229 230 229 229 228 227 226 226 226 226 226 225 225 226 227 228 227 228 228 228 229 229 229 230 232 235 236 237 237 235 235 236 237 236 236 236 237 238 240 240 241 240 239 238 238 239 239 239 238 236 234 231 228
304 295 287 279 272 266 260 255 251 248 246 244 242 240 238 237 236 235 235 234 233 232 231 230 230 230 230 229 229 229 229 228 228 228 228 228 229 229 229 228 228 227 226 226 226 225 225 225 226 227 228 228 228 228 228 229 229 229 229 230 233 235 237 237 235 233 234 235 235 234 234 235 236 236 237 239 238 237 235 234 234 234 234 234 232 230 227 223
309 300 292 285 277 271 264 257 252 249 246 244 242 240 238 237 236 236 235 234 234 232 231 231 230 230 230 229 228 228 228 228 229 228 227 227 228 229 229 229 228 228 227 226 226 225 226 226 226 227 228 227 228 228 228 228 229 229 228 229 231 233 236 237 235 232 232 235 235 233 232 233 233 232 233 234 234 234 232 231 230 229 229 229 228 226 222 219
315 304 294 287 281 274 268 261 254 250 246 244 243 241 238 237 236 235 235 234 234 233 232 231 231 230 230 230 229 228 228 228 229 229 227 227 228 228 228 228 228 228 227 226 226 225 226 226 227 227 227 227 227 227 227 227 228 229 228 228 230 231 234 237 236 233 231 234 235 232 229 230 230 230 230 230 230 230 229 227 226 224 224 224 223 221 218 216
321 309 296 288 281 275 270 264 258 252 248 245 243 242 239 238 236 235 235 234 233 233 232 232 231 231 230 230 230 229 228 228 229 229 228 227 227 228 228 228 228 228 228 227 226 226 226 226 227 227 227 226 226 227 227 227 226 227 228 228 229 230 232 235 236 234 231 232 234 232 228 227 227 227 226 226 227 227 225 223 222 221 220 220 220 217 215 215
325 315 300 289 281 274 270 265 260 256 251 246 243 242 240 238 237 236 235 234 234 233 232 232 232 232 231 230 230 230 229 228 229 230 229 228 227 227 227 227 227 227 227 227 227 226 226 226 227 227 227 227 226 227 227 227 226 226 228 228 228 229 231 233 235 235 232 232 233 233 229 225 223 224 224 222 223 223 221 219 219 220 218 216 217 215 214 215
329 319 306 292 281 273 268 264 260 257 254 250 245 243 241 239 238 237 236 235 234 233 232 232 232 232 232 231 231 230 229 229 229 229 229 228 228 227 227 227 227 227 227 227 227 227 227 226 227 227 227 227 227 227 227 226 225 226 229 229 228 229 230 232 233 234 233 231 231 232 230 226 223 224 223 219 219 220 219 217 217 218 217 216 215 213 214 215
333 324 311 296 283 273 266 261 258 256 254 252 249 246 243 240 238 237 236 235 235 234 233 232 232 232 232 231 231 231 230 229 229 230 229 229 228 228 227 226 227 227 226 226 227 227 227 227 226 227 226 226 226 226 226 225 224 226 228 228 228 229 230 231 231 233 233 230 228 229 227 225 222 222 221 216 215 217 216 215 216 218 217 215 214 212 214 214
336 327 315 301 288 276 266 260 256 254 253 251 250 247 245 242 240 238 236 236 236 235 234 233 232 232 231 231 231 231 231 230 229 230 230 229 229 228 228 227 227 227 227 226 226 227 227 227 227 227 227 226 226 225 224 223 223 224 226 227 227 228 229 231 231 231 232 229 227 226 223 221 218 217 217 215 215 217 216 213 213 216 216 214 213 213 214 212
339 331 319 306 293 280 270 262 256 253 251 250 249 247 246 244 241 239 237 235 235 235 234 234 233 231 230 231 231 231 231 231 230 230 230 229 228 228 228 228 227 227 227 226 226 226 227 227 227 227 227 226 226 226 226 225 223 223 224 226 227 227 228 229 230 230 230 227 226 224 220 217 215 212 212 214 215 216 216 213 211 213 214 213 213 213 214 213
341 333 323 310 297 285 274 265 258 253 249 248 247 246 246 245 242 239 237 234 233 233 233 234 234 232 230 230 231 230 230 231 230 230 230 229 228 227 228 228 228 228 227 226 226 226 226 226 226 226 226 226 226 227 227 226 225 224 224 225 226 226 226 227 228 229 228 226 226 224 220 217 215 212 209 211 213 214 216 215 213 211 210 212 212 212 214 213
343 335 325 314 301 289 278 268 260 255 250 247 245 244 243 242 240 237 235 233 231 231 231 232 232 231 230 229 230 230 230 230 231 231 231 230 229 227 227 228 228 228 228 226 226 226 226 226 226 226 227 226 226 227 227 227 227 227 226 226 226 225 225 225 226 227 226 224 224 225 222 217 214 213 209 209 212 214 215 215 216 213 209 209 211 212 213 212
344 337 328 317 306 292 281 272 264 257 252 249 246 243 241 239 238 236 233 230 228 228 230 231 231 230 230 229 230 231 231 231 231 231 231 231 229 228 227 227 227 228 228 227 226 226 226 226 226 226 226 226 226 227 227 227 227 227 226 227 227 226 224 223 223 225 225 224 224 226 224 217 213 213 210 209 213 216 216 215 216 216 211 208 209 212 213 211
346 340 331 321 310 296 284 274 266 261 256 251 247 244 241 238 236 234 232 230 228 228 230 231 232 231 230 230 230 231 231 231 231 231 231 231 230 229 228 228 227 227 227 227 226 225 226 226 226 226 225 225 225 226 227 226 225 225 225 225 226 226 225 223 222 222 223 223 224 225 223 216 212 213 211 211 214 216 217 217 217 217 213 209 210 213 214 212
346 342 334 324 313 299 287 277 268 263 258 253 249 245 242 239 236 234 233 232 231 231 232 233 233 231 230 230 231 231 231 231 232 232 231 231 230 229 228 228 228 227 227 226 226 225 225 226 226 225 225 224 224 225 226 226 225 225 224 224 225 226 226 225 223 222 222 222 222 224 221 215 213 212 211 213 214 214 215 217 218 218 214 211 212 215 215 212
346 343 337 327 317 302 289 279 271 265 260 255 250 246 242 240 237 235 233 234 235 234 234 233 232 232 230 229 229 230 232 232 232 233 232 231 230 229 229 228 228 228 227 226 226 226 226 226 225 225 225 225 224 225 226 226 226 225 225 224 224 225 226 226 225 223 223 222 222 223 221 216 214 212 210 212 213 212 212 213 216 218 217 213 212 216 217 213
346 343 339 332 323 309 294 281 272 266 261 257 253 248 244 241 239 237 234 234 236 235 235 234 232 232 231 230 229 230 231 232 232 233 233 232 230 229 229 229 229 229 228 227 226 226 226 226 226 225 225 225 224 224 225 226 226 226 225 224 223 224 225 226 225 224 224 223 222 223 222 218 215 213 211 212 213 212 210 209 211 215 218 217 214 215 216 213
347 343 341 337 329 317 300 285 274 267 260 256 253 249 246 243 241 239 236 235 236 236 237 237 236 235 235 234 233 232 231 232 232 233 234 233 232 230 229 229 229 229 228 228 227 226 226 226 226 225 225 225 225 224 224 225 225 226 226 225 223 223 224 225 225 224 224 223 223 223 223 219 216 215 213 214 217 216 214 210 209 211 216 219 218 217 216 213
348 345 343 340 334 324 308 290 277 269 263 258 253 250 248 245 242 240 238 237 238 237 238 238 238 238 237 236 235 234 233 232 232 233 234 234 233 231 230 229 229 229 229 228 227 226 225 225 226 225 225 225 225 224 224 224 225 225 226 225 225 225 224 224 224 223 222 222 223 223 223 221 220 218 215 215 217 218 216 213 209 210 213 217 221 221 217 213
349 347 345 342 336 330 318 299 281 271 265 260 256 252 249 245 242 240 238 237 238 237 237 237 237 237 236 237 237 236 235 234 233 234 234 234 233 232 231 230 229 229 230 228 227 226 226 225 226 225 225 225 225 224 224 224 224 225 226 226 225 226 225 224 224 222 221 221 221 223 224 224 223 221 217 216 217 218 218 214 209 209 211 214 219 223 220 215
351 349 347 344 338 333 325 309 289 274 266 260 256 253 249 245 243 241 239 237 237 237 236 236 236 237 237 237 237 237 237 236 235 235 235 235 233 231 231 231 229 228 229 229 227 226 225 225 226 226 225 225 225 224 223 223 223 224 225 225 224 224 225 224 224 223 220 219 219 221 223 225 225 222 219 217 216 219 221 217 210 209 211 212 215 222 223 218
351 351 350 346 341 335 328 317 299 280 268 261 255 252 249 247 245 242 240 239 237 236 236 236 236 236 236 237 237 237 237 237 236 235 234 234 233 230 229 230 230 228 229 229 228 225 224 224 225 226 225 224 225 225 223 223 223 223 224 225 225 224 224 223 223 223 221 218 218 219 221 224 225 223 221 219 216 218 221 219 213 209 211 212 214 219 222 221
352 352 351 349 343 337 331 321 306 288 272 263 256 251 248 247 245 243 240 239 238 238 238 236 235 235 234 235 237 236 235 235 235 234 233 232 232 231 229 229 229 229 228 229 228 226 224 223 224 225 225 224 224 225 224 223 223 222 223 225 225 224 224 223 222 223 222 220 218 217 219 222 224 223 222 220 218 217 219 219 216 210 210 211 212 216 219 221
353 354 353 350 345 339 333 323 310 293 277 266 258 252 247 244 243 242 240 239 239 239 238 237 236 236 235 235 237 237 236 235 235 234 231 230 231 231 230 228 228 229 228 228 228 226 224 223 223 224 225 224 223 224 224 224 223 223 222 223 224 224 223 223 222 222 222 221 219 217 218 220 222 223 223 221 219 217 217 219 219 213 211 211 212 214 216 219
354 355 354 352 348 342 336 327 314 297 281 268 260 254 249 245 243 241 240 239 239 238 239 239 238 238 238 237 238 239 238 237 237 236 232 228 228 230 230 228 227 228 228 227 227 226 225 223 222 222 224 225 224 223 223 223 223 223 223 223 223 224 223 222 222 221 221 221 220 218 217 218 219 221 222 222 221 218 216 218 220 217 213 212 212 213 215 217
355 356 356 354 351 347 340 331 320 304 287 272 263 256 252 248 245 243 241 241 240 240 240 241 241 240 240 240 240 241 241 240 240 239 235 230 228 228 229 228 227 227 228 228 227 226 225 223 222 221 223 225 224 223 222 222 222 222 222 222 222 222 223 222 221 221 221 220 220 219 218 218 218 219 221 221 221 219 216 216 219 219 216 214 212 212 214 215
356 357 358 357 354 350 345 337 327 312 295 278 266 260 255 251 249 247 245 244 244 243 243 243 243 244 243 243 243 243 243 242 241 241 239 235 231 230 229 228 227 227 228 228 227 226 225 224 222 221 222 224 224 224 222 221 221 221 221 222 222 222 222 222 221 220 220 220 220 219 218 218 218 218 219 220 221 219 215 215 217 219 217 215 213 213 214 214
357 358 359 359 357 354 350 343 334 320 303 286 271 263 257 253 251 251 250 249 248 248 247 247 247 247 247 247 246 245 245 244 243 242 242 240 237 234 231 228 226 226 227 228 228 227 225 224 223 221 221 222 224 224 223 221 221 221 221 221 222 221 221 221 220 219 219 220 219 218 218 218 217 217 217 219 220 218 214 213 215 216 217 215 213 213 215 215
357 359 0 0 359 358 354 349 341 327 312 295 279 268 262 257 254 252 251 251 250 250 250 250 251 251 251 251 250 249 248 247 246 244 244 243 241 238 235 232 229 227 226 227 228 228 227 224 223 222 221 222 223 224 223 222 220 220 221 221 221 221 220 220 220 219 218 219 220 219 218 217 217 217 217 218 219 218 214 212 213 215 215 215 214 213 214 215
357 359 1 2 1 0 358 354 347 336 322 307 290 277 268 262 257 255 253 252 252 252 251 251 252 252 252 252 252 252 252 251 250 248 247 246 245 243 239 236 234 231 228 228 228 229 229 226 224 222 222 223 223 223 224 223 220 219 220 221 221 220 219 220 220 220 219 219 219 220 218 216 216 217 217 217 218 218 215 211 212 214 213 212 214 214 213 213
Height
10929 10930 10930 10930 10931 10931 10932 10933 10934 10936 10937 10939 10941 10942 10944 10946 10947 10949 10951 10953 10954 10956 10957 10958 10959 10960 10961 10962 10963 10964 10966 10968 10971 10973 10975 10976 10978 10980 10982 10984 10987 10988 10990 10992 10994 10996 10998 11000 11000 11001 11003 11004 11004 11004 11005 11007 11008 11010 11012 11014 11016 11017 11018 11020 11021 11022 11022 11022 11023 11023 11022 11022 11022 11022 11021 11021 11020 11016 11013 11012 11011 11012 11012 11012 11011 11010 11009 11007
10924 10925 10925 10926 10926 10926 10927 10928 10929 10930 10932 10934 10935 10937 10939 10940 10942 10944 10946 10948 10950 10951 10953 10954 10955 10956 10957 10958 10959 10960 10962 10964 10967 10969 10971 10972 10974 10977 10979 10981 10983 10985 10987 10990 10992 10994 10995 10997 10997 10999 11001 11002 11002 11003 11003 11005 11006 11008 11009 11012 11014 11015 11016 11018 11019 11020 11020 11021 11022 11022 11022 11022 11021 11021 11021 11021 11020 11015 11013 11013 11013 11013 11013 11013 11012 11011 11010 11008
10919 10919 10920 10921 10921 10921 10922 10923 10924 10925 10926 10928 10930 10931 10933 10935 10937 10939 10941 10943 10945 10947 10948 10950 10951 10952 10953 10954 10955 10956 10958 10961 10963 10965 10966 10967 10970 10972 10975 10977 10980 10981 10984 10986 10989 10990 10992 10994 10995 10997 10999 11000 11000 11001 11002 11003 11004 11006 11007 11009 11012 11013 11014 11015 11016 11018 11019 11019 11020 11021 11022 11021 11021 11020 11020 11020 11019 11015 11013 11014 11014 11015 11015 11014 11013 11011 11011 11009
10913 10913 10914 10915 10915 10916 10917 10917 10918 10920 10921 10922 10924 10925 10927 10929 10931 10933 10935 10937 10939 10941 10943 10945 10946 10948 10949 10950 10951 10952 10954 10957 10959 10960 10961 10963 10966 10968 10971 10973 10975 10978 10980 10983 10985 10987 10989 10991 10993 10995 10997 10998 10998 10999 11000 11001 11002 11004 11006 11007 11009 11011 11012 11013 11014 11015 11017 11018 11018 11019 11020 11020 11019 11019 11019 11020 11018 11016 11016 11016 11016 11016 11016 11015 11014 11012 11011 11010
10906 10906 10907 10908 10909 10910 10910 10911 10912 10913 10915 10916 10918 10919 10921 10923 10925 10927 10929 10931 10933 10935 10937 10939 10941 10943 10944 10945 10946 10947 10950 10953 10954 10955 10957 10959 10962 10964 10967 10969 10971 10973 10976 10979 10982 10984 10986 10988 10990 10992 10994 10995 10996 10997 10999 11000 11000 11002 11003 11005 11007 11009 11010 11011 11012 11012 11014 11016 11016 11017 11019 11019 11019 11019 11019 11020 11019 11018 11018 11018 11017 11017 11016 11016 11015 11013 11012 11011
10898 10899 10900 10901 10902 10903 10903 10905 10906 10907 10908 10910 10911 10913 10915 10917 10919 10921 10923 10925 10927 10929 10931 10933 10935 10937 10938 10940 10941 10942 10944 10947 10949 10951 10952 10955 10957 10960 10962 10964 10966 10968 10972 10975 10977 10980 10982 10984 10986 10988 10990 10992 10993 10995 10996 10997 10998 10999 11001 11002 11004 11006 11008 11009 11010 11010 11012 11014 11015 11016 11018 11019 11019 11020 11019 11019 11020 11019 11019 11019 11018 11017 11017 11016 11015 11013 11012 11011
10890 10890 10891 10892 10893 10895 10896 10897 10898 10900 10901 10902 10904 10906 10908 10910 10912 10914 10917 10919 10921 10923 10925 10927 10929 10931 10933 10935 10936 10937 10938 10941 10945 10947 10948 10951 10953 10955 10957 10959 10961 10964 10968 10970 10973 10975 10977 10979 10981 10984 10986 10988 10990 10992 10994 10994 10995 10996 10997 10999 11001 11003 11005 11007 11007 11008 11010 11011 11013 11014 11016 11018 11018 11019 11020 11019 11020 11020 11019 11018 11018 11017 11017 11016 11015 11014 11013 11011
10881 10881 10882 10883 10884 10886 10887 10889 10890 10892 10893 10895 10897 10899 10901 10903 10905 10907 10910 10912 10914 10916 10919 10921 10923 10925 10927 10929 10931 10931 10932 10935 10941 10942 10943 10946 10948 10949 10952 10954 10957 10960 10963 10965 10968 10971 10972 10975 10978 10980 10982 10985 10988 10990 10991 10991 10991 10992 10994 10996 10998 11000 11002 11004 11005 11005 11007 11008 11009 11012 11014 11015 11017 11018 11019 11018 11019 11020 11019 11018 11017 11017 11017 11017 11016 11015 11014 11012
10871 10871 10872 10872 10874 10875 10877 10879 10881 10883 10885 10887 10889 10891 10893 10895 10898 10900 10902 10905 10907 10910 10912 10914 10916 10918 10920 10922 10924 10925 10926 10930 10935 10938 10938 10941 10943 10944 10946 10949 10952 10955 10957 10960 10963 10965 10968 10971 10974 10976 10979 10982 10984 10986 10987 10987 10988 10989 10991 10992 10994 10996 10997 11000 11001 11002 11005 11005 11006 11010 11012 11013 11014 11016 11018 11017 11018 11019 11019 11017 11017 11017 11017 11017 11016 11016 11014 11013
10861 10861 10861 10862 10863 10865 10867 10869 10871 10873 10876 10878 10880 10882 10884 10887 10889 10892 10894 10897 10900 10902 10905 10907 10909 10911 10913 10915 10917 10919 10921 10924 10930 10934 10933 10934 10937 10939 10941 10944 10947 10950 10952 10954 10957 10960 10964 10967 10969 10972 10975 10977 10979 10982 10983 10983 10985 10986 10987 10988 10990 10991 10993 10997 10998 11000 11002 11003 11004 11006 11009 11011 11012 11015 11016 11016 11016 11018 11018 11017 11017 11017 11017 11017 11016 11016 11015 11013
10851 10851 10851 10851 10852 10853 10855 10858 10860 10863 10865 10868 10870 10873 10875 10878 10881 10883 10886 10889 10892 10894 10897 10899 10902 10904 10905 10908 10910 10913 10915 10918 10923 10927 10927 10928 10931 10933 10936 10938 10942 10945 10947 10949 10952 10956 10959 10962 10965 10968 10970 10972 10975 10977 10979 10980 10981 10982 10983 10984 10985 10988 10991 10994 10997 10998 11000 11003 11002 11003 11006 11008 11011 11013 11015 11015 11015 11016 11017 11017 11017 11017 11017 11017 11017 11016 11015 11013
10840 10840 10840 10840 10841 10842 10844 10846 10848 10851 10854 10857 10860 10863 10866 10869 10872 10875 10878 10880 10883 10886 10889 10891 10894 10896 10898 10901 10904 10906 10909 10911 10915 10919 10921 10922 10924 10928 10931 10933 10936 10939 10941 10944 10947 10950 10953 10957 10960 10962 10965 10968 10971 10972 10974 10975 10976 10976 10978 10979 10981 10984 10987 10990 10994 10996 10997 11001 11001 11001 11003 11006 11009 11011 11013 11015 11014 11015 11016 11016 11016 11016 11016 11017 11016 11016 11015 11014
10828 10829 10829 10829 10830 10831 10832 10834 10836 10839 10842 10845 10849 10852 10855 10859 10862 10865 10868 10872 10875 10877 10880 10883 10885 10888 10890 10894 10896 10899 10903 10904 10907 10912 10915 10917 10919 10922 10925 10928 10931 10934 10936 10939 10942 10945 10948 10951 10954 10957 10960 10963 10965 10967 10968 10970 10970 10971 10973 10975 10977 10979 10982 10986 10991 10994 10995 10997 10999 11000 11002 11004 11006 11009 11011 11013 11012 11012 11014 11015 11015 11015 11015 11016 11016 11015 11015 11014
10816 10816 10816 10817 10818 10819 10821 10822 10824 10826 10829 10833 10836 10840 10844 10848 10852 10855 10859 10862 10865 10869 10871 10874 10877 10879 10882 10885 10889 10892 10894 10896 10900 10905 10908 10911 10913 10916 10919 10922 10925 10928 10931 10934 10937 10939 10942 10946 10949 10952 10954 10957 10960 10961 10963 10965 10965 10967 10969 10971 10973 10975 10979 10984 10989 10992 10992 10994 10997 10999 11000 11001 11003 11006 11009 11011 11010 11010 11012 11013 11014 11014 11015 11015 11016 11015 11015 11014
10802 10801 10802 10803 10805 10806 10808 10810 10812 10814 10817 10820 10823 10827 10832 10836 10840 10844 10848 10852 10856 10859 10862 10865 10868 10870 10873 10877 10880 10883 10885 10889 10893 10897 10901 10904 10906 10909 10913 10916 10918 10921 10925 10928 10931 10934 10937 10940 10943 10946 10949 10952 10954 10956 10958 10959 10960 10962 10963 10966 10969 10971 10976 10981 10985 10988 10990 10991 10993 10996 10998 10999 11000 11003 11005 11007 11008 11008 11009 11011 11012 11013 11014 11015 11015 11015 11014 11013
10787 10786 10787 10788 10790 10791 10794 10796 10799 10802 10804 10807 10810 10814 10819 10823 10828 10832 10836 10841 10845 10849 10853 10855 10858 10861 10864 10868 10872 10875 10877 10881 10886 10889 10893 10897 10900 10902 10905 10909 10912 10915 10918 10922 10926 10929 10932 10934 10937 10940 10943 10947 10949 10951 10953 10953 10954 10956 10957 10961 10965 10968 10973 10977 10979 10983 10987 10988 10989 10992 10995 10996 10998 11000 11002 11004 11005 11006 11007 11009 11011 11011 11012 11013 11014 11014 11013 11013
10772 10771 10771 10772 10774 10776 10778 10781 10784 10788 10791 10794 10797 10801 10806 10810 10815 10819 10824 10829 10834 10839 10842 10845 10849 10852 10855 10859 10864 10867 10869 10873 10877 10881 10885 10889 10892 10895 10899 10902 10905 10908 10912 10916 10920 10924 10927 10929 10931 10935 10939 10942 10944 10946 10946 10945 10948 10951 10953 10957 10961 10965 10969 10973 10974 10978 10982 10984 10986 10988 10991 10992 10995 10997 10999 11001 11003 11005 11006 11007 11009 11010 11010 11011 11012 11012 11013 11013
10759 10757 10757 10758 10759 10761 10764 10766 10769 10773 10777 10781 10784 10788 10793 10798 10801 10806 10811 10817 10823 10827 10831 10834 10839 10843 10846 10851 10855 10857 10860 10864 10868 10872 10876 10881 10884 10888 10892 10895 10899 10902 10906 10910 10914 10918 10921 10924 10926 10930 10933 10935 10937 10938 10938 10940 10945 10948 10950 10953 10958 10961 10965 10968 10970 10973 10977 10981 10982 10985 10987 10988 10991 10994 10996 10997 10999 11002 11004 11005 11007 11008 11009 11009 11010 11011 11011 11012
10748 10745 10744 10745 10746 10747 10750 10753 10755 10759 10763 10767 10771 10775 10780 10785 10788 10793 10799 10805 10811 10816 10819 10824 10828 10832 10837 10840 10843 10847 10852 10856 10859 10863 10868 10872 10876 10880 10884 10888 10892 10895 10900 10904 10907 10911 10915 10918 10922 10925 10926 10927 10930 10931 10933 10937 10942 10943 10945 10950 10954 10956 10959 10962 10965 10967 10971 10975 10977 10980 10984 10984 10986 10990 10993 10994 10996 10999 11002 11003 11004 11006 11007 11007 11008 11009 11010 11010
10738 10735 10733 10733 10734 10735 10738 10740 10743 10746 10749 10753 10758 10762 10767 10772 10776 10779 10787 10793 10798 10804 10808 10812 10817 10822 10827 10829 10832 10838 10843 10848 10850 10854 10859 10863 10867 10872 10876 10880 10884 10889 10893 10896 10899 10903 10908 10913 10917 10918 10918 10920 10924 10926 10930 10935 10937 10939 10942 10946 10949 10950 10953 10956 10960 10962 10965 10969 10972 10976 10981 10981 10982 10986 10990 10991 10993 10996 10999 11000 11001 11003 11004 11005 11006 11007 11008 11009
10729 10726 10724 10724 10723 10724 10726 10729 10731 10734 10737 10740 10745 10749 10754 10760 10764 10767 10775 10781 10786 10792 10796 10800 10806 10811 10816 10818 10822 10828 10834 10839 10841 10844 10850 10854 10858 10863 10867 10872 10876 10880 10885 10888 10892 10896 10903 10909 10910 10909 10911 10915 10919 10922 10926 10930 10932 10934 10938 10941 10944 10945 10946 10950 10955 10958 10960 10964 10968 10972 10977 10977 10978 10983 10986 10988 10990 10993 10996 10998 10998 11000 11001 11002 11004 11005 11007 11007
10722 10718 10716 10716 10715 10714 10716 10718 10720 10722 10725 10728 10732 10737 10742 10748 10752 10756 10763 10768 10774 10780 10784 10789 10793 10799 10804 10808 10813 10819 10824 10830 10832 10834 10840 10845 10849 10854 10858 10863 10867 10872 10877 10881 10885 10890 10897 10901 10901 10901 10905 10909 10913 10917 10921 10925 10928 10931 10934 10937 10939 10939 10941 10944 10950 10954 10956 10960 10964 10969 10972 10972 10975 10980 10983 10984 10987 10990 10993 10994 10995 10997 10998 11000 11001 11003 11004 11005
10715 10711 10709 10708 10707 10706 10707 10709 10710 10711 10713 10717 10720 10725 10730 10736 10740 10744 10750 10756 10762 10768 10773 10777 10781 10786 10792 10797 10803 10808 10814 10820 10822 10823 10831 10837 10840 10844 10848 10853 10858 10863 10868 10872 10877 10883 10889 10891 10891 10893 10898 10903 10907 10911 10916 10920 10923 10926 10930 10932 10933 10934 10935 10939 10945 10950 10953 10956 10960 10964 10967 10969 10973 10977 10979 10980 10984 10987 10989 10991 10992 10994 10995 10997 10999 11000 11002 11004
10709 10705 10701 10701 10700 10697 10698 10700 10700 10702 10703 10705 10708 10713 10719 10724 10728 10732 10737 10743 10749 10755 10760 10765 10769 10773 10779 10785 10792 10797 10803 10810 10810 10812 10822 10828 10829 10834 10839 10844 10850 10855 10859 10864 10870 10876 10880 10882 10883 10886 10892 10898 10902 10906 10911 10915 10918 10921 10925 10927 10927 10928 10930 10933 10940 10946 10947 10949 10953 10959 10964 10967 10971 10973 10974 10976 10980 10983 10986 10987 10989 10990 10992 10994 10996 10998 11000 11002
10702 10699 10694 10693 10693 10690 10690 10691 10691 10692 10694 10695 10697 10701 10707 10712 10716 10720 10725 10731 10736 10742 10748 10752 10757 10761 10767 10774 10780 10787 10793 10797 10798 10802 10813 10818 10820 10824 10830 10835 10840 10845 10850 10855 10861 10868 10872 10874 10876 10880 10886 10892 10896 10900 10905 10909 10912 10916 10920 10922 10922 10923 10924 10927 10934 10940 10942 10944 10949 10956 10961 10964 10966 10968 10970 10972 10975 10979 10982 10984 10986 10987 10988 10991 10993 10995 10998 11000
10696 10692 10688 10685 10685 10683 10682 10682 10682 10682 10684 10686 10687 10691 10696 10700 10703 10708 10712 10718 10722 10728 10734 10739 10745 10749 10756 10763 10769 10776 10781 10785 10787 10793 10803 10808 10810 10814 10820 10826 10831 10835 10840 10846 10854 10861 10864 10867 10869 10873 10879 10884 10889 10893 10898 10903 10907 10910 10913 10915 10916 10918 10919 10921 10927 10935 10938 10940 10945 10953 10957 10959 10962 10965 10967 10968 10970 10974 10978 10980 10982 10983 10985 10988 10990 10993 10995 10998
10689 10685 10681 10677 10677 10676 10674 10674 10674 10673 10675 10678 10678 10681 10685 10688 10691 10696 10700 10705 10709 10714 10719 10727 10733 10738 10746 10753 10758 10764 10770 10775 10779 10783 10791 10797 10800 10804 10811 10816 10820 10824 10832 10839 10847 10852 10856 10859 10861 10866 10871 10877 10883 10886 10891 10896 10901 10903 10905 10908 10910 10912 10914 10916 10921 10929 10934 10936 10941 10948 10952 10955 10958 10961 10964 10966 10967 10970 10973 10976 10977 10979 10982 10985 10987 10990 10993 10995
10681 10677 10674 10670 10668 10668 10667 10666 10666 10665 10666 10669 10670 10671 10674 10677 10681 10684 10689 10693 10695 10701 10707 10715 10721 10727 10736 10742 10746 10752 10758 10765 10770 10771 10777 10784 10789 10794 10800 10805 10810 10816 10825 10832 10838 10843 10847 10850 10854 10859 10866 10873 10878 10880 10883 10889 10894 10895 10896 10901 10904 10906 10908 10911 10916 10922 10928 10933 10938 10943 10949 10952 10953 10955 10960 10963 10964 10966 10969 10971 10973 10975 10978 10981 10983 10987 10990 10992
10674 10670 10666 10662 10660 10660 10659 10658 10658 10657 10657 10659 10661 10662 10664 10667 10670 10674 10678 10681 10683 10689 10697 10704 10710 10716 10724 10729 10733 10740 10747 10755 10758 10758 10764 10772 10777 10784 10789 10795 10801 10809 10818 10824 10829 10833 10837 10842 10848 10853 10860 10866 10870 10872 10877 10883 10888 10888 10889 10894 10899 10901 10903 10906 10912 10917 10923 10931 10935 10939 10945 10949 10950 10952 10956 10960 10961 10961 10965 10968 10969 10971 10974 10978 10980 10983 10986 10989
10667 10662 10658 10655 10652 10651 10651 10650 10650 10650 10650 10651 10652 10654 10655 10657 10661 10664 10668 10671 10674 10681 10687 10693 10699 10703 10709 10716 10722 10729 10736 10742 10745 10746 10752 10760 10766 10772 10777 10786 10794 10801 10810 10816 10820 10823 10828 10835 10841 10845 10850 10855 10857 10861 10867 10873 10879 10880 10882 10887 10892 10895 10897 10901 10907 10911 10918 10926 10930 10934 10940 10945 10948 10950 10953 10956 10955 10955 10959 10964 10966 10968 10970 10973 10976 10979 10982 10985
10660 10655 10651 10647 10645 10644 10643 10642 10642 10643 10643 10643 10645 10646 10647 10649 10653 10656 10659 10663 10667 10671 10676 10681 10685 10688 10696 10704 10710 10717 10723 10728 10732 10735 10740 10747 10754 10759 10767 10778 10788 10793 10800 10807 10811 10815 10821 10827 10833 10837 10841 10843 10846 10850 10854 10860 10868 10871 10873 10878 10884 10889 10892 10896 10902 10907 10913 10920 10924 10929 10935 10940 10944 10947 10949 10951 10951 10951 10954 10958 10961 10963 10965 10969 10972 10976 10979 10983
10654 10648 10644 10640 10637 10636 10635 10635 10635 10635 10635 10636 10637 10639 10641 10643 10646 10649 10651 10655 10658 10661 10665 10667 10669 10676 10686 10693 10698 10704 10709 10713 10718 10722 10726 10732 10741 10749 10759 10770 10778 10783 10789 10796 10801 10806 10811 10817 10822 10827 10829 10832 10837 10841 10845 10851 10857 10862 10865 10870 10876 10882 10886 10891 10896 10902 10909 10914 10917 10923 10929 10934 10938 10941 10944 10946 10948 10950 10949 10951 10954 10957 10961 10965 10969 10972 10976 10979
10647 10642 10637 10633 10630 10629 10628 10627 10627 10628 10628 10629 10630 10632 10636 10638 10640 10642 10643 10646 10649 10652 10654 10654 10657 10667 10675 10680 10684 10690 10695 10699 10705 10709 10712 10718 10730 10742 10752 10761 10767 10771 10778 10785 10791 10796 10801 10806 10810 10813 10815 10820 10828 10833 10838 10843 10849 10854 10858 10861 10867 10874 10880 10886 10891 10896 10903 10908 10911 10917 10923 10929 10933 10936 10939 10941 10943 10944 10943 10946 10949 10952 10956 10961 10965 10969 10972 10975
10641 10635 10630 10627 10624 10621 10621 10620 10620 10620 10620 10622 10623 10627 10630 10632 10633 10635 10636 10639 10640 10642 10643 10643 10645 10653 10661 10667 10672 10676 10682 10688 10693 10697 10700 10708 10721 10735 10744 10751 10756 10760 10766 10774 10781 10787 10791 10794 10798 10802 10805 10813 10822 10827 10831 10837 10845 10852 10854 10855 10859 10865 10873 10880 10884 10888 10895 10901 10905 10910 10918 10925 10928 10930 10933 10935 10935 10936 10939 10942 10946 10949 10952 10956 10961 10965 10969 10972
10636 10629 10623 10620 10617 10615 10614 10613 10612 10613 10613 10615 10617 10620 10624 10626 10627 10628 10629 10630 10632 10633 10633 10632 10635 10644 10653 10659 10663 10666 10672 10679 10682 10684 10690 10699 10712 10724 10732 10738 10743 10746 10752 10761 10769 10775 10778 10781 10787 10792 10798 10808 10817 10819 10821 10828 10836 10842 10846 10849 10853 10858 10866 10872 10878 10882 10888 10894 10899 10904 10912 10920 10923 10924 10927 10929 10930 10933 10936 10939 10942 10946 10950 10953 10958 10962 10964 10968
10630 10624 10617 10614 10611 10608 10607 10606 10606 10606 10607 10608 10611 10613 10616 10618 10620 10620 10621 10623 10625 10625 10625 10626 10632 10640 10647 10651 10654 10658 10662 10667 10669 10672 10680 10690 10701 10713 10720 10724 10728 10732 10737 10745 10754 10760 10765 10769 10775 10782 10789 10800 10807 10805 10807 10815 10822 10827 10833 10839 10844 10851 10857 10863 10869 10874 10880 10887 10893 10897 10905 10913 10916 10919 10922 10924 10927 10930 10933 10936 10939 10942 10947 10952 10955 10958 10960 10964
10624 10618 10612 10607 10605 10602 10600 10599 10599 10600 10601 10602 10604 10606 10608 10610 10611 10613 10615 10618 10619 10619 10621 10624 10628 10634 10640 10643 10646 10648 10651 10656 10659 10662 10672 10681 10690 10700 10707 10710 10714 10717 10724 10733 10740 10747 10753 10755 10762 10772 10780 10788 10793 10792 10796 10804 10811 10816 10823 10829 10836 10843 10849 10855 10861 10866 10871 10877 10883 10888 10896 10905 10909 10912 10916 10918 10922 10926 10929 10932 10934 10937 10943 10948 10951 10953 10956 10960
10617 10612 10607 10601 10598 10596 10594 10593 10593 10593 10594 10596 10597 10599 10600 10602 10603 10606 10610 10611 10612 10614 10616 10618 10623 10628 10631 10634 10637 10639 10643 10647 10650 10653 10661 10668 10676 10686 10693 10697 10701 10705 10713 10722 10729 10736 10741 10744 10752 10763 10769 10773 10779 10783 10788 10795 10801 10808 10814 10820 10828 10834 10837 10842 10849 10858 10864 10870 10876 10882 10889 10897 10902 10904 10906 10908 10912 10916 10921 10925 10928 10932 10938 10942 10946 10948 10950 10955
10611 10605 10601 10597 10593 10590 10589 10588 10587 10587 10588 10589 10591 10592 10593 10594 10596 10599 10603 10605 10604 10607 10609 10611 10616 10620 10622 10625 10629 10633 10635 10638 10641 10644 10648 10654 10663 10674 10681 10685 10690 10696 10703 10710 10717 10724 10729 10733 10742 10753 10756 10759 10767 10774 10779 10784 10790 10797 10802 10808 10816 10820 10824 10830 10841 10852 10859 10865 10871 10875 10881 10888 10891 10891 10893 10896 10899 10905 10912 10918 10924 10928 10932 10935 10940 10943 10945 10951
10607 10599 10595 10591 10588 10585 10583 10582 10582 10582 10582 10583 10585 10586 10586 10588 10591 10593 10596 10598 10598 10600 10604 10606 10610 10614 10616 10619 10623 10626 10628 10630 10632 10634 10637 10644 10653 10663 10670 10674 10679 10684 10690 10696 10703 10710 10716 10721 10729 10739 10743 10747 10756 10764 10768 10773 10779 10784 10788 10795 10802 10807 10815 10825 10835 10847 10855 10861 10866 10868 10873 10876 10875 10879 10887 10891 10896 10902 10910 10916 10921 10925 10927 10930 10934 10937 10941 10948
10603 10595 10589 10586 10583 10581 10579 10577 10576 10576 10576 10578 10579 10580 10581 10584 10585 10586 10589 10591 10592 10595 10599 10601 10605 10608 10609 10612 10615 10617 10619 10620 10623 10626 10630 10636 10643 10652 10658 10663 10668 10672 10676 10682 10689 10695 10703 10709 10717 10724 10730 10736 10743 10751 10757 10762 10768 10773 10778 10786 10794 10801 10809 10817 10826 10836 10847 10855 10860 10864 10865 10863 10865 10876 10885 10889 10895 10901 10908 10915 10921 10924 10926 10928 10930 10932 10937 10945
10600 10591 10585 10581 10577 10575 10574 10573 10572 10571 10571 10572 10573 10575 10577 10578 10579 10580 10582 10583 10585 10588 10592 10594 10596 10599 10602 10605 10606 10607 10608 10612 10617 10620 10624 10628 10635 10642 10648 10652 10658 10660 10661 10666 10674 10681 10691 10699 10705 10710 10718 10724 10728 10735 10744 10751 10758 10764 10767 10775 10787 10795 10803 10811 10817 10826 10838 10847 10854 10857 10855 10853 10862 10876 10882 10885 10891 10896 10903 10911 10917 10920 10923 10925 10927 10928 10933 10941
10596 10589 10582 10577 10573 10570 10569 10568 10568 10567 10567 10568 10569 10570 10571 10572 10573 10575 10576 10578 10580 10582 10584 10586 10589 10592 10596 10597 10597 10599 10603 10607 10610 10613 10617 10621 10627 10633 10637 10639 10643 10645 10645 10651 10660 10671 10682 10689 10693 10697 10705 10712 10712 10719 10732 10738 10745 10753 10755 10763 10776 10783 10792 10803 10810 10817 10826 10835 10841 10847 10847 10848 10860 10872 10875 10881 10888 10892 10899 10907 10912 10915 10918 10922 10924 10925 10930 10935
10591 10585 10579 10574 10570 10567 10565 10564 10564 10563 10563 10564 10564 10565 10566 10567 10569 10570 10571 10573 10575 10576 10577 10580 10584 10587 10589 10589 10590 10593 10596 10599 10601 10605 10609 10613 10617 10622 10625 10626 10628 10632 10636 10641 10649 10660 10670 10676 10679 10682 10690 10698 10698 10705 10718 10724 10730 10739 10745 10752 10763 10772 10782 10793 10800 10805 10813 10822 10830 10836 10838 10841 10852 10863 10867 10874 10882 10888 10895 10902 10907 10912 10915 10918 10922 10924 10928 10931
10588 10581 10575 10571 10567 10563 10561 10560 10560 10559 10559 10560 10561 10561 10562 10563 10564 10566 10567 10568 10569 10571 10573 10576 10579 10580 10582 10582 10583 10586 10588 10591 10593 10596 10600 10605 10608 10611 10614 10615 10618 10623 10628 10632 10637 10646 10655 10661 10665 10668 10673 10681 10684 10692 10704 10711 10717 10728 10737 10742 10751 10762 10772 10781 10788 10795 10805 10815 10821 10825 10828 10834 10845 10852 10857 10866 10875 10883 10890 10896 10902 10907 10910 10914 10918 10920 10923 10926
10587 10579 10573 10569 10564 10561 10558 10557 10556 10556 10556 10556 10557 10558 10558 10559 10560 10561 10563 10564 10565 10567 10569 10571 10572 10574 10576 10577 10577 10579 10581 10583 10585 10588 10593 10598 10600 10601 10603 10606 10610 10614 10618 10621 10625 10633 10641 10648 10653 10656 10659 10664 10671 10680 10691 10701 10709 10720 10728 10731 10739 10751 10760 10768 10777 10786 10796 10805 10810 10813 10819 10825 10833 10839 10847 10859 10868 10876 10885 10890 10896 10903 10906 10910 10914 10917 10921 10923
10585 10578 10572 10567 10563 10559 10556 10554 10553 10553 10553 10553 10553 10554 10555 10556 10556 10557 10558 10559 10561 10563 10564 10565 10566 10568 10569 10571 10572 10573 10575 10577 10578 10581 10586 10590 10592 10592 10593 10598 10602 10604 10606 10610 10615 10620 10627 10634 10641 10645 10646 10650 10659 10668 10677 10688 10698 10709 10716 10720 10728 10738 10747 10756 10767 10777 10785 10791 10797 10803 10808 10813 10820 10830 10841 10852 10860 10871 10881 10886 10892 10899 10904 10908 10912 10915 10918 10919
10583 10576 10571 10565 10561 10557 10554 10552 10551 10550 10550 10550 10550 10550 10551 10552 10553 10554 10554 10555 10556 10558 10559 10560 10561 10562 10563 10565 10566 10567 10569 10571 10572 10574 10577 10582 10584 10584 10586 10590 10594 10595 10596 10600 10606 10610 10615 10622 10629 10634 10636 10639 10646 10655 10664 10674 10683 10693 10701 10707 10714 10724 10733 10744 10756 10767 10773 10777 10784 10793 10798 10803 10812 10824 10835 10844 10852 10866 10877 10882 10887 10895 10901 10906 10909 10910 10912 10913
10581 10575 10569 10564 10559 10556 10553 10550 10549 10548 10547 10547 10547 10547 10548 10548 10549 10550 10551 10551 10552 10553 10554 10555 10556 10557 10558 10559 10561 10561 10563 10564 10566 10568 10570 10572 10575 10576 10579 10583 10586 10587 10588 10591 10595 10599 10605 10611 10618 10623 10626 10628 10633 10640 10650 10660 10668 10676 10685 10691 10700 10711 10721 10731 10743 10753 10758 10763 10770 10779 10786 10794 10805 10817 10828 10835 10844 10859 10871 10876 10881 10888 10895 10900 10904 10906 10907 10909
10581 10573 10568 10563 10558 10555 10552 10549 10547 10546 10545 10544 10544 10544 10545 10545 10546 10546 10547 10548 10549 10549 10550 10551 10551 10552 10553 10554 10555 10556 10557 10558 10560 10561 10562 10564 10566 10568 10571 10574 10577 10579 10580 10581 10585 10589 10594 10601 10607 10612 10616 10618 10620 10626 10635 10645 10654 10663 10673 10681 10689 10700 10710 10717 10726 10735 10742 10747 10756 10764 10774 10786 10798 10810 10820 10826 10834 10847 10860 10869 10875 10879 10884 10890 10896 10901 10903 10906
10580 10574 10567 10562 10557 10554 10551 10548 10546 10544 10543 10542 10542 10542 10542 10542 10542 10543 10543 10544 10544 10545 10546 10546 10547 10547 10548 10549 10549 10550 10551 10552 10554 10555 10555 10556 10558 10560 10562 10565 10568 10570 10571 10573 10576 10579 10584 10590 10596 10602 10606 10607 10608 10613 10621 10631 10643 10653 10664 10671 10676 10683 10694 10700 10707 10716 10726 10736 10745 10753 10764 10778 10792 10803 10811 10817 10825 10835 10847 10860 10867 10869 10875 10882 10886 10891 10896 10900
10579 10573 10568 10562 10557 10553 10550 10547 10545 10543 10542 10541 10540 10539 10539 10539 10539 10539 10539 10540 10540 10540 10541 10542 10542 10543 10543 10543 10544 10544 10545 10546 10547 10548 10549 10550 10551 10552 10554 10556 10558 10560 10563 10565 10568 10571 10575 10580 10585 10591 10596 10595 10597 10603 10609 10617 10631 10645 10653 10655 10655 10662 10676 10686 10694 10706 10719 10730 10738 10744 10756 10773 10786 10796 10803 10809 10817 10825 10836 10851 10858 10860 10868 10875 10875 10879 10886 10892